Preview of NWS' New Version of Forecast
This preview is not operational and should not be used for support decisions.

Regional Weather Roundup (RWR)

Issued by National Weather Service (NWS)

                            
000
ASUS46 KPQR 171710
RWROR 

OREGON REGIONAL WEATHER ROUNDUP
NATIONAL WEATHER SERVICE PORTLAND OR
1000 AM PDT SAT AUG 17 2019

NOTE: "FAIR" INDICATES FEW OR NO CLOUDS BELOW 12,000 FEET WITH
NO SIGNIFICANT WEATHER AND/OR OBSTRUCTIONS TO VISIBILITY.

ORZ001>013-171800-
NORTHWEST OREGON

  
CITY           SKY/WX    TMP DP  RH WIND       PRES   REMARKS
ASTORIA        CLOUDY    63  59  87 W9        30.03R                  
TILLAMOOK      CLOUDY    63  59  88 SW3       30.06S                  
PORTLAND       PTSUNNY   65  53  65 W5        30.03S                  
VANCOUVER WA   CLOUDY    65  54  67 VRB5      30.03R                  
SCAPPOOSE      CLOUDY    66  54  65 VRB3      30.02S                  
HILLSBORO      CLOUDY    66  52  60 VRB5      30.02F                  
AURORA         CLOUDY    65  52  62 CALM      30.04S                  
MCMINNVILLE    CLOUDY    64  54  69 N3        30.03S                  
SALEM          CLOUDY    66  52  60 NW5       30.03S                  
CORVALLIS      PTSUNNY   66  54  65 VRB3      30.04F                  
EUGENE         PTSUNNY   68  53  58 N8        30.04F                  
$$

ORZ021-028-171800-
SOUTHWEST OREGON

  
CITY           SKY/WX    TMP DP  RH WIND       PRES   REMARKS
NORTH BEND     MOSUNNY   69  55  60 NE10      30.05S                  
BROOKINGS      SUNNY     78  50  37 VRB5      29.89F                  
ROSEBURG       SUNNY     65  52  62 N7        30.03F                  
SEXTON SUMMIT  SUNNY     61  46  57 CALM      30.05S                  
GRANTS PASS    FAIR      66  48  52 CALM      30.03S                  
MEDFORD        SUNNY     65  44  46 CALM      30.00S                  
$$

ORZ014>016-041-171800-
COLUMBIA GORGE

  
CITY           SKY/WX    TMP DP  RH WIND       PRES   REMARKS
TROUTDALE      CLOUDY    64  55  72 CALM      30.03S                  
THE DALLES     SUNNY     70  51  51 NW17G25   29.95S                  
$$

ORZ029>031-041-044-049-050-061>064-502-503-505>511-171800-
EASTERN OREGON

  
CITY           SKY/WX    TMP DP  RH WIND       PRES   REMARKS
MADRAS         MOSUNNY   63  46  55 MISG      30.01S                  
REDMOND        SUNNY     69  40  34 N6        30.00S                  
BEND           SUNNY     68  39  34 W7        30.00S                  
PRINEVILLE     SUNNY     64  41  42 CALM      30.00S                  
KLAMATH FALLS  SUNNY     66  36  32 W5        30.04S                  
LAKEVIEW       SUNNY     67  38  34 SE5       30.06S                  
HERMISTON      SUNNY     72  51  47 SW13      29.92S                  
PENDLETON      SUNNY     69  47  45 W10G17    29.94S                  
JOHN DAY       SUNNY     67  40  37 NW9       30.01R                  
MEACHAM        SUNNY     63  44  50 CALM      29.99S                  
LA GRANDE      MOSUNNY   68  43  40 W12       29.96F                  
BAKER CITY     SUNNY     69  44  40 W8        29.98R                  
BURNS          SUNNY     69  38  32 MISG      30.02S                  
ROME             N/A     74  23  15 CALM      29.99S                  
ONTARIO        SUNNY     78  43  28 W5        29.92R                  
$$